{"data":{"norad_id":62911,"epoch":"2026-09-21T09:51:46.476576Z","epoch_age_seconds":89562,"freshness":"FRESH","line1":"1 62911U 25027E   26264.41095459  .00119162  00000+0  91705-3 0  9996","line2":"2 62911  42.9982 247.9520 0001081 235.2482 124.8284 15.70888126 93973","mean_motion":15.70888126,"eccentricity":0.0001081,"inclination_deg":42.9982,"raan_deg":247.952,"arg_perigee_deg":235.2482,"mean_anomaly_deg":124.8284,"bstar":0.00091705,"rev_number":9397,"period_min":91.667890040439,"perigee_km":355.62951310865,"apogee_km":357.08551082213,"semimajor_km":6734.4945119654,"source":"CELESTRAK","updated_at":"2026-09-22T09:00:49.707261Z"}}